STARLINK-1224 (45186 NORAD) Tracking and Keplerian Element Data

This shows tracking and keplerian element data for the satellite.

Feedback or suggestion? Click here.




ElementValue
Catalog45186
NameSTARLINK-1224
Epoch Orbit767
Epoch Day94.25001157
Epoch Year2020
RAAN52.1441
Inclination52.9969
Eccentricity0.0001564
Argument of Perigee63.0733
Mean Anonmoly145.9641
Mean Motion15.05581362
Decay Rate0.00019854
L11 45186U 20012J 20094.25001157 .00019854 00000-0 13779-2 0 9991
L22 45186 52.9969 52.1441 0001564 63.0733 145.9641 15.05581362 7677

Live tracking and technical data element details for STARLINK-1224 (NORAD 45186). STARLINK-1224 can be tracked NOW for your location showing map with azimuth and elevation plus other details from your city location.

Track the satellite on the map from your city or location and see movement details for azimuth, elevation, latitude, longitude, range, height, and movement on the map or in text.







IsCatalogInMostPopularTable: catalog: 45186, numindb: 10
Update: records affected: 1



GetName: 45186 STARLINK-1224

Hit Count: updated at: Sat, 04 Apr 2020 21:31:28 GMT